Location: Fours
(44.3167°N, 6.7000°E)
Time: 03:34:09
(UTC+00:00)

Cosmos 2098 - Pass Details

Date: 03 June 2022
Orbit: 387 x 1576 km, 82.9° (Epoch: 04 July)

Event Time Altitude Azimuth Distance (km) Brightness Sun altitude
Rises 02:11:06 0° 353° (N) 2,289 8.7 -14.0°
Reaches altitude 10° 02:13:01 10° 356° (N) 1,436 7.7 -13.8°
Maximum altitude 02:16:01 75° 82° (E) 434 4.4 -13.5°
Enters shadow 02:19:18 11° 168° (SSE) 1,575 6.8 -13.1°
